Volver al catálogo

STARLINK-30788

ActivoComunicacionesVLEO
NORAD 58159·PAYLOAD·🇺🇸 United States

Lanzado Oct 29, 2023 desde Vandenberg Space Force Base

Loading…

Próximos Pases (próximas 24 horas)

TLE

ActualizadoSource: CelesTrak SupGP

Época: Sep 15, 2026, 03:24 UTC

1 58159C 23166K   26258.14215278 -.00025115  00000+0 -80793-3 0  2582
2 58159  53.1581  58.3723 0001135  95.0585 242.1705 15.31703638    12

Sigue STARLINK-30788 en tiempo real con AllMySat

Download on the App Store